Tracking 18984 objects as of 24-Feb-2018
HD Live streaming from Space Station
objects crossing your sky now

DMSP 5D-2 F13 (USA 109)

Track DMSP 5D-2 F13 (USA 109) now!
10-day predictions
DMSP 5D-2 F13 (USA 109) is classified as:


NORAD ID: 23533
Int'l Code: 1995-015A
Perigee: 841.2 km
Apogee: 852.0 km
Inclination: 98.8 °
Period: 101.7 minutes
Semi major axis: 7217 km
RCS: Unknown
Launch date: March 24, 1995
Source: United States (US)
Launch site: AIR FORCE WESTERN TEST RANGE (AFWTR)

Near-polar orbits; investigate Earth's environment.
aabbcc
Your satellite tracking list
Your tracking list is empty




NASA's NSSDC Master Catalog

Two Line Element Set (TLE):
1 23533U 95015A   18049.21246904 0.00000030  00000-0  15272-4 0    03
2 23533  98.7896  51.5900 0007500 175.1771 184.8228 14.15839309    02
Source of the keplerian elements: McCants